• Join FlightAware (Why Join?)
  • Login
  • US Flag 
11:19AM EST


 

Airport Tracker/Info


-or-


 

Live Flight TrackerFlight Track Log ✈ SWA34 ✈ 07-May-2013 ✈ KJAX - KORF

Flight Track Log - Related Links

Times and Time Zones

All times are in EDT time to prevent confusion due to time zone crossing. See the SWA34 flight status page for this flight to view local times or setup timezone preferences in your user account.

Time Position Orientation Groundspeed Altitude Reporting Facility
EDT Latitude Longitude Course Direction KTS MPH feet Rate Location/Type
08:35AM 30.5222 -81.7375 318° Northwest 193 222 2,300  Level Jacksonville Center
08:35AM 30.5786 -81.7442 354° North 260 299 4,300 2,100 Climbing Jacksonville Center
08:36AM 30.5953 -81.7389 15° North 261 300 4,800 2,940 Climbing Jacksonville Center
08:37AM 30.6744 -81.7211 11° North 275 316 8,000 3,300 Climbing Jacksonville Center
08:38AM 30.7558 -81.7033 11° North 286 329 11,400 3,420 Climbing Jacksonville Center
08:39AM 30.8433 -81.6756 15° North 304 350 14,900 3,120 Climbing Jacksonville Center
08:40AM 30.9325 -81.6236 27° Northeast 321 369 17,700 2,760 Climbing Jacksonville Center
08:41AM 31.0236 -81.5569 32° Northeast 367 422 20,500 2,400 Climbing Jacksonville Center
08:42AM 31.1211 -81.4900 30° Northeast 389 448 22,500 2,100 Climbing Jacksonville Center
08:43AM 31.2267 -81.4156 31° Northeast 421 484 24,800 1,200 Climbing Jacksonville Center
08:44AM 31.3322 -81.3383 32° Northeast 445 512 25,000 240 Climbing Jacksonville Center
08:45AM 31.4397 -81.2464 36° Northeast 469 540 25,300 1,260 Climbing Jacksonville Center
08:46AM 31.5533 -81.1567 34° Northeast 474 545 27,600 2,760 Climbing Jacksonville Center
08:47AM 31.6586 -81.0717 34° Northeast 474 545 30,900 2,100 Climbing Jacksonville Center
08:48AM 31.7558 -81.0039 31° Northeast 453 521 31,900 1,080 Climbing Jacksonville Center
08:49AM 31.8906 -80.9400 22° Northeast 464 534 33,100 1,440 Climbing Jacksonville Center
08:50AM 32.0169 -80.8761 23° Northeast 482 555 34,800 1,920 Climbing Jacksonville Center
08:51AM 32.1350 -80.8194 22° Northeast 467 537 37,000 600 Climbing Jacksonville Center
08:52AM 32.2428 -80.7728 20° North 450 518 36,000 -1,080 Descending Jacksonville Center
08:53AM 32.3586 -80.7136 23° Northeast 445 512 34,900 -540 Descending Jacksonville Center
08:54AM 32.4700 -80.6419 28° Northeast 450 518 35,000  Climbing Jacksonville Center
08:55AM 32.5683 -80.5336 43° Northeast 462 532 35,000  Level Jacksonville Center
08:56AM 32.6728 -80.4247 41° Northeast 479 551 35,000  Level Jacksonville Center
08:57AM 32.7750 -80.3131 43° Northeast 491 565 35,000  Level Jacksonville Center
08:58AM 32.8811 -80.2014 41° Northeast 497 572 35,000  Level Jacksonville Center
08:59AM 32.9953 -80.0767 42° Northeast 513 590 35,000  Level Jacksonville Center
09:00AM 33.1033 -79.9642 41° Northeast 507 583 35,000 -60 Level Jacksonville Center
09:01AM 33.2072 -79.8564 41° Northeast 501 577 34,900 -60 Descending Jacksonville Center
09:02AM 33.3089 -79.7436 43° Northeast 501 577 34,900  Level Jacksonville Center
09:03AM 33.4083 -79.6356 42° Northeast 501 577 34,900  Level Jacksonville Center
09:04AM 33.5119 -79.5247 42° Northeast 501 577 35,000  Climbing Jacksonville Center
09:05AM 33.6111 -79.4161 42° Northeast 490 564 35,000  Level Jacksonville Center
09:06AM 33.7103 -79.3072 42° Northeast 485 558 35,000  Level Jacksonville Center
09:07AM 33.7931 -79.2117 44° Northeast 474 545 35,000  Level Jacksonville Center
09:08AM 33.8942 -79.1022 42° Northeast 474 545 35,000  Level Jacksonville Center
09:09AM 34.0694 -78.9111 42° Northeast 474 545 35,000 -240 Level Washington Center
09:10AM 34.1706 -78.8047 41° Northeast 474 545 34,500 -720 Descending Washington Center
09:11AM 34.2714 -78.6906 43° Northeast 474 545 33,600 -840 Descending Washington Center
09:12AM 34.3764 -78.5814 41° Northeast 480 552 32,900 -300 Descending Washington Center
09:13AM 34.4814 -78.4767 39° Northeast 480 552 33,000  Climbing Washington Center
09:14AM 34.5861 -78.3694 40° Northeast 490 564 33,000  Level Washington Center
09:15AM 34.6908 -78.2644 39° Northeast 490 564 33,000  Level Washington Center
09:16AM 34.7953 -78.1567 40° Northeast 490 564 33,000  Level Washington Center
09:17AM 34.8872 -78.0581 41° Northeast 490 564 33,000 -300 Level Washington Center
09:18AM 34.9894 -77.9522 40° Northeast 485 558 32,500 -780 Descending Washington Center
09:19AM 35.0894 -77.8486 40° Northeast 485 558 31,500 -1,020 Descending Washington Center
09:20AM 35.1894 -77.7472 40° Northeast 473 544 30,500 -1,020 Descending Washington Center
09:21AM 35.2914 -77.6431 40° Northeast 473 544 29,500 -1,020 Descending Washington Center
09:22AM 35.3933 -77.5411 39° Northeast 468 539 28,500 -1,440 Descending Washington Center
09:23AM 35.5072 -77.4650 29° Northeast 468 539 26,700 -2,100 Descending Washington Center
09:24AM 35.6272 -77.3833 29° Northeast 473 544 24,300 -2,040 Descending Washington Center
09:25AM 35.7433 -77.3067 28° Northeast 473 544 22,600 -1,680 Descending Washington Center
09:26AM 35.8569 -77.2297 29° Northeast 468 539 21,000 -840 Descending Washington Center
09:27AM 35.9644 -77.1547 29° Northeast 458 527 21,000  Level Washington Center
09:28AM 36.0633 -77.0875 29° Northeast 432 497 21,000 -300 Level Washington Center
09:29AM 36.1347 -77.0425 27° Northeast 402 463 20,600 -840 Descending Washington Center
09:29AM 36.1642 -77.0172 35° Northeast 412 474 20,200 -2,580 Descending Washington Center
09:30AM 36.2378 -76.9697 27° Northeast 410 472 18,000 -2,820 Descending Washington Center
09:30AM 36.2611 -76.9494 35° Northeast 406 467 17,500 -2,400 Descending Washington Center
09:31AM 36.3347 -76.9019 27° Northeast 401 461 15,600 -2,280 Descending Washington Center
09:31AM 36.3597 -76.8842 30° Northeast 395 455 15,200 -2,220 Descending Washington Center
09:32AM 36.4147 -76.8206 43° Northeast 368 423 13,400 -2,340 Descending Washington Center
09:32AM 36.4358 -76.8003 38° Northeast 383 441 12,900 -2,340 Descending Washington Center
09:33AM 36.5050 -76.7600 25° Northeast 351 404 11,100 -2,220 Descending Washington Center
09:33AM 36.5219 -76.7422 40° Northeast 370 426 10,700 -1,560 Descending Washington Center
09:34AM 36.5914 -76.6836 34° Northeast 334 384 9,000 -2,100 Descending Washington Center
09:35AM 36.6417 -76.6378 36° Northeast 293 337 7,200 -2,460 Descending Washington Center
09:35AM 36.6525 -76.6172 57° Northeast 301 346 6,700 -2,100 Descending Washington Center
09:36AM 36.6717 -76.5528 70° East 258 297 5,100 -2,040 Descending Washington Center
09:36AM 36.6803 -76.5319 63° Northeast 266 306 4,700 -1,800 Descending Washington Center
09:37AM 36.7161 -76.4650 56° Northeast 267 307 3,100 -1,560 Descending Washington Center
09:38AM 36.7542 -76.3956 56° Northeast 261 300 2,100 -960 Descending Washington Center
09:38AM 36.7628 -76.3775 59° Northeast 254 292 2,000 -120 Descending Washington Center
09:39AM 36.7900 -76.3336 52° Northeast 191 220 2,000 -120 Level Washington Center
09:40AM 36.8217 -76.2744 56° Northeast 191 220 1,800 -600 Descending Washington Center
09:41AM 36.8553 -76.2408 39° Northeast 142 163 800 -1,020 Descending Washington Center